Location: Praha
(50.0830°N, 14.4670°E)
Time: 01:57:31
(UTC+01:00)

ISS - Pass Details

Date: 14 November 2025
Orbit: 414 x 420 km, 51.6° (Epoch: 18 November)

Event Time Altitude Azimuth Distance (km) Brightness Sun altitude
Rises 18:59:21 0° 237° (WSW) 2,345 0.9 -25.6°
Reaches altitude 10° 19:01:27 10° 233° (SW) 1,485 -0.4 -26.0°
Enters shadow 19:02:33 19° 227° (SW) 1,056 -1.3 -26.1°
